Location: USNO
(38.9242°N, 77.0663°W)
Time: 22:05:21
(UTC-05:00)

Vanguard 2 - All Passes

Search period start: 17 December 2017 00:00
Search period end: 27 December 2017 00:00
Orbit: 553 x 2939 km, 32.9° (Epoch: 17 December)

Date Brightness Start Highest point End Pass type
(mag) Time Alt. Az. Time Alt. Az. Time Alt. Az.
17 Dec - 10:50:53 10° S 10:57:16 14° SSE 11:02:35 10° ESE daylight
17 Dec - 12:57:01 10° SW 13:07:18 32° SSE 13:14:04 10° E daylight
17 Dec - 15:07:40 10° WSW 15:16:31 49° S 15:21:59 10° ESE daylight
17 Dec - 17:18:49 10° W 17:24:49 40° SSW 17:29:00 10° ESE visible
17 Dec - 19:30:08 10° WSW 19:32:12 13° SSW 19:34:09 10° S visible
18 Dec - 11:06:03 10° SSW 11:15:26 21° SSE 11:22:34 10° ESE daylight
18 Dec - 13:14:26 10° SW 13:25:26 40° SSE 13:32:21 10° E daylight
18 Dec - 15:25:47 10° WSW 15:34:34 52° S 15:39:59 10° ESE daylight
18 Dec - 17:37:06 10° W 17:42:42 34° SSW 17:46:44 10° SE visible
19 Dec - 11:22:18 10° SSW 11:33:35 27° SSE 11:41:37 10° ESE daylight
19 Dec - 13:32:09 10° SW 13:43:33 47° SSE 13:50:31 10° E daylight
19 Dec - 15:43:58 10° WSW 15:52:36 53° S 15:57:55 10° ESE daylight
19 Dec - 17:55:28 10° W 18:00:32 27° SSW 18:04:18 10° SSE visible
20 Dec - 09:33:48 10° S 09:41:12 15° SE 09:47:35 10° ESE daylight
20 Dec - 11:39:11 10° SW 11:51:43 34° SSE 12:00:13 10° E daylight
20 Dec - 13:50:06 10° WSW 14:01:40 53° S 14:08:36 10° E daylight
20 Dec - 16:02:14 10° W 16:10:36 50° S 16:15:49 10° ESE daylight
20 Dec - 18:14:03 10° WSW 18:18:16 20° SSW 18:21:35 10° SSE visible
21 Dec - 09:48:37 10° S 09:59:18 21° SSE 10:07:51 10° ESE daylight
21 Dec - 11:56:28 10° SW 12:09:52 42° SSE 12:18:34 10° E daylight
21 Dec - 14:08:12 10° WSW 14:19:46 57° S 14:26:37 10° E daylight
21 Dec - 16:20:32 10° W 16:28:33 45° SSW 16:33:38 10° SE daylight
21 Dec - 18:33:06 10° WSW 18:35:54 14° SW 18:38:19 10° S visible
22 Dec - 10:04:39 10° SSW 10:17:23 28° SSE 10:27:04 10° E daylight
22 Dec - 12:14:05 10° SW 12:28:00 49° SSE 12:36:47 10° E daylight
22 Dec - 14:26:25 10° WSW 14:37:51 59° S 14:44:35 10° ESE daylight
22 Dec - 16:38:52 10° W 16:46:25 38° SSW 16:51:20 10° SE daylight
23 Dec - 08:17:34 10° SSE 08:24:42 14° SE 08:31:15 10° ESE daylight
23 Dec - 10:21:19 10° SSW 10:35:29 35° SSE 10:45:48 10° E daylight
23 Dec - 12:31:57 10° WSW 12:46:08 55° S 12:54:54 10° E daylight
23 Dec - 14:44:42 10° W 14:55:55 58° S 15:02:32 10° ESE daylight
23 Dec - 16:57:20 10° W 17:04:11 30° SSW 17:08:50 10° SSE daylight
24 Dec - 08:31:46 10° S 08:42:41 20° SE 08:52:10 10° ESE daylight
24 Dec - 10:38:27 10° SW 10:53:35 42° SSE 11:04:15 10° E daylight
24 Dec - 12:50:01 10° WSW 13:04:17 60° S 13:12:57 10° E daylight
24 Dec - 15:03:02 10° W 15:13:56 55° SSW 15:20:24 10° ESE daylight
24 Dec - 17:15:59 10° W 17:21:50 23° SW 17:26:04 10° SSE visible
25 Dec - 08:47:28 10° SSW 09:00:40 27° SE 09:11:43 10° E daylight
25 Dec - 10:55:55 10° SW 11:11:42 49° SSE 11:22:32 10° E daylight
25 Dec - 13:08:12 10° WSW 13:22:25 63° S 13:30:58 10° E daylight
25 Dec - 15:21:24 10° W 15:31:52 49° SSW 15:38:11 10° SE daylight
25 Dec - 17:35:02 10° WSW 17:39:22 16° SW 17:42:48 10° S visible
26 Dec - 07:03:10 10° SSE 07:08:00 12° SE 07:12:43 10° ESE visible
26 Dec - 09:03:53 10° SSW 09:18:38 34° SSE 09:30:39 10° E daylight
26 Dec - 11:13:39 10° WSW 11:29:51 56° SSE 11:40:42 10° E daylight
26 Dec - 13:26:29 10° W 13:40:33 64° S 13:48:57 10° ESE daylight
26 Dec - 15:39:49 10° W 15:49:42 42° SSW 15:55:50 10° SE daylight
26 Dec - 17:55:40 10° SW 17:56:49 10° SW 17:57:54 10° SW visible
